Powrót do katalogu

STARLINK-4452

AktywnyŁącznośćSSO
NORAD 53658·PAYLOAD·🇺🇸 United States

Wystrzelony Aug 31, 2022 z Vandenberg Space Force Base

Loading…

Następne Przeloty (najbliższe 24 godziny)

TLE

ŚwieżeSource: CelesTrak SupGP

Epoka: Sep 14, 2026, 14:06 UTC

1 53658C 22105L   26257.58798611  .00063335  00000+0  19665-2 0  2579
2 53658  97.2838 134.3503 0001609  87.0171  43.0442 15.33400693    17

Śledź STARLINK-4452 w czasie rzeczywistym z AllMySat

Download on the App Store